Time,TemperatureF,DewpointF,PressureIn,WindDirection,WindDirectionDegrees,WindSpeedMPH,WindSpeedGustMPH,Humidity,HourlyPrecipIn,Conditions,Clouds,dailyrainin,SoftwareType,DateUTC
2013-10-28 00:03:00,66.9,55.2,30.02,NNW,331,0.0,0.0,66,0.00,CLR,,0.00,WeatherDisplay:10.37,2013-10-27 13:03:00,
2013-10-28 00:08:00,66.9,55.6,30.02,East,83,0.0,0.0,67,0.00,CLR,,0.00,WeatherDisplay:10.37,2013-10-27 13:08:00,
2013-10-28 00:13:00,66.7,55.4,30.02,SE,145,0.0,0.0,67,0.00,CLR,,0.00,WeatherDisplay:10.37,2013-10-27 13:13:00,
2013-10-28 00:18:00,66.7,55.4,30.01,SE,134,0.0,2.0,67,0.00,CLR,,0.00,WeatherDisplay:10.37,2013-10-27 13:18:00,
2013-10-28 00:23:00,66.7,55.4,30.02,North,354,0.0,0.0,67,0.00,CLR,,0.00,WeatherDisplay:10.37,2013-10-27 13:23:00,
2013-10-28 00:28:00,66.7,55.4,30.02,SSE,151,0.0,1.0,67,0.00,CLR,,0.00,WeatherDisplay:10.37,2013-10-27 13:28:00,
2013-10-28 00:33:00,66.6,55.7,30.01,SSE,155,0.0,0.0,68,0.00,CLR,,0.00,WeatherDisplay:10.37,2013-10-27 13:33:00,
2013-10-28 00:38:00,66.6,55.7,30.01,WSW,252,0.0,0.0,68,0.00,CLR,,0.00,WeatherDisplay:10.37,2013-10-27 13:38:00,
2013-10-28 00:43:00,66.4,55.5,30.01,NW,312,0.0,0.0,68,0.00,CLR,,0.00,WeatherDisplay:10.37,2013-10-27 13:43:00,
2013-10-28 00:48:00,66.4,55.5,30.01,SSE,147,0.0,1.0,68,0.00,CLR,,0.00,WeatherDisplay:10.37,2013-10-27 13:48:00,
2013-10-28 00:53:00,66.4,55.5,30.00,SSE,159,0.0,1.0,68,0.00,CLR,,0.00,WeatherDisplay:10.37,2013-10-27 13:53:00,
2013-10-28 00:58:00,66.4,55.9,30.00,SSE,151,0.0,1.0,69,0.00,CLR,,0.00,WeatherDisplay:10.37,2013-10-27 13:58:00,
2013-10-28 01:03:00,66.4,55.9,30.00,SSW,203,0.0,0.0,69,0.00,CLR,,0.00,WeatherDisplay:10.37,2013-10-27 14:03:00,
2013-10-28 01:08:00,66.2,55.7,30.00,NNW,343,0.0,2.0,69,0.00,CLR,,0.00,WeatherDisplay:10.37,2013-10-27 14:08:00,
2013-10-28 01:13:00,66.2,55.7,30.00,SSW,195,0.0,0.0,69,0.00,CLR,,0.00,WeatherDisplay:10.37,2013-10-27 14:13:00,
2013-10-28 01:18:00,66.1,55.6,30.00,South,171,0.0,0.0,69,0.00,CLR,,0.00,WeatherDisplay:10.37,2013-10-27 14:18:00,
2013-10-28 01:23:00,66.0,55.6,30.00,SE,138,0.0,0.0,69,0.00,CLR,,0.00,WeatherDisplay:10.37,2013-10-27 14:23:00,
2013-10-28 01:28:00,66.0,55.6,29.99,ESE,121,0.0,0.0,69,0.00,CLR,,0.00,WeatherDisplay:10.37,2013-10-27 14:28:00,
2013-10-28 01:33:00,66.0,56.0,29.99,East,88,0.0,0.0,70,0.00,CLR,,0.00,WeatherDisplay:10.37,2013-10-27 14:33:00,
2013-10-28 01:38:00,66.0,56.0,29.99,East,100,0.0,0.0,70,0.00,CLR,,0.00,WeatherDisplay:10.37,2013-10-27 14:38:00,
2013-10-28 01:43:00,66.0,56.0,29.98,SSE,148,0.0,2.0,70,0.00,CLR,,0.00,WeatherDisplay:10.37,2013-10-27 14:43:00,
2013-10-28 01:48:00,66.0,56.0,29.98,East,94,0.0,0.0,70,0.00,CLR,,0.00,WeatherDisplay:10.37,2013-10-27 14:48:00,
2013-10-28 01:53:00,66.0,56.0,29.98,SE,141,1.0,2.0,70,0.00,CLR,,0.00,WeatherDisplay:10.37,2013-10-27 14:53:00,
2013-10-28 01:58:00,66.0,56.3,29.98,SSE,154,0.0,1.0,71,0.00,CLR,,0.00,WeatherDisplay:10.37,2013-10-27 14:58:00,
2013-10-28 02:03:00,65.9,55.9,29.98,South,173,0.0,0.0,70,0.00,CLR,,0.00,WeatherDisplay:10.37,2013-10-27 15:03:00,
2013-10-28 02:08:00,65.8,56.2,29.98,SSE,158,0.0,0.0,71,0.00,CLR,,0.00,WeatherDisplay:10.37,2013-10-27 15:08:00,
2013-10-28 02:13:00,65.8,55.8,29.98,ESE,117,0.0,0.0,70,0.00,CLR,,0.00,WeatherDisplay:10.37,2013-10-27 15:13:00,
2013-10-28 02:18:00,65.5,55.4,29.98,NW,307,0.0,0.0,70,0.00,CLR,,0.00,WeatherDisplay:10.37,2013-10-27 15:18:00,
2013-10-28 02:23:00,65.3,55.3,29.97,North,354,0.0,0.0,70,0.00,CLR,,0.00,WeatherDisplay:10.37,2013-10-27 15:23:00,
2013-10-28 02:28:00,65.1,55.1,29.97,ESE,103,0.0,0.0,70,0.00,CLR,,0.00,WeatherDisplay:10.37,2013-10-27 15:28:00,
2013-10-28 02:33:00,64.9,54.9,29.97,ESE,112,0.0,0.0,70,0.00,CLR,,0.00,WeatherDisplay:10.37,2013-10-27 15:33:00,
2013-10-28 02:38:00,64.6,54.6,29.97,ESE,107,0.0,0.0,70,0.00,CLR,,0.00,WeatherDisplay:10.37,2013-10-27 15:38:00,
2013-10-28 02:43:00,64.4,54.4,29.97,ESE,122,0.0,0.0,70,0.00,CLR,,0.00,WeatherDisplay:10.37,2013-10-27 15:43:00,
2013-10-28 02:48:00,64.2,54.2,29.97,ESE,118,0.0,0.0,70,0.00,CLR,,0.00,WeatherDisplay:10.37,2013-10-27 15:48:00,
2013-10-28 02:53:00,64.0,54.1,29.96,ESE,113,0.0,0.0,70,0.00,CLR,,0.00,WeatherDisplay:10.37,2013-10-27 15:53:00,
2013-10-28 02:58:00,64.0,54.0,29.95,ESE,121,0.0,0.0,70,0.00,CLR,,0.00,WeatherDisplay:10.37,2013-10-27 15:58:00,
2013-10-28 03:03:00,63.7,53.7,29.95,ESE,117,0.0,0.0,70,0.00,CLR,,0.00,WeatherDisplay:10.37,2013-10-27 16:03:00,
2013-10-28 03:08:00,63.5,53.5,29.96,ESE,112,0.0,0.0,70,0.00,CLR,,0.00,WeatherDisplay:10.37,2013-10-27 16:08:00,
2013-10-28 03:13:00,63.3,53.4,29.96,ESE,107,0.0,0.0,70,0.00,CLR,,0.00,WeatherDisplay:10.37,2013-10-27 16:13:00,
2013-10-28 03:18:00,63.1,53.2,29.95,ESE,105,0.0,0.0,70,0.00,CLR,,0.00,WeatherDisplay:10.37,2013-10-27 16:18:00,
2013-10-28 03:23:00,63.0,53.1,29.95,ESE,111,0.0,0.0,70,0.00,CLR,,0.00,WeatherDisplay:10.37,2013-10-27 16:23:00,
2013-10-28 03:28:00,62.9,53.4,29.95,ESE,112,0.0,0.0,71,0.00,CLR,,0.00,WeatherDisplay:10.37,2013-10-27 16:28:00,
2013-10-28 03:33:00,62.8,53.2,29.95,ESE,112,0.0,0.0,71,0.00,CLR,,0.00,WeatherDisplay:10.37,2013-10-27 16:33:00,
2013-10-28 03:38:00,62.6,53.1,29.95,ESE,112,0.0,0.0,71,0.00,CLR,,0.00,WeatherDisplay:10.37,2013-10-27 16:38:00,
2013-10-28 03:43:00,62.4,52.9,29.95,ESE,112,0.0,0.0,71,0.00,CLR,,0.00,WeatherDisplay:10.37,2013-10-27 16:43:00,
2013-10-28 03:48:00,62.4,52.9,29.95,ESE,117,0.0,0.0,71,0.00,CLR,,0.00,WeatherDisplay:10.37,2013-10-27 16:48:00,
2013-10-28 03:53:00,62.2,52.7,29.95,ESE,117,0.0,0.0,71,0.00,CLR,,0.00,WeatherDisplay:10.37,2013-10-27 16:53:00,
2013-10-28 03:58:00,62.2,52.7,29.94,East,99,0.0,0.0,71,0.00,CLR,,0.00,WeatherDisplay:10.37,2013-10-27 16:58:00,
2013-10-28 04:03:00,62.1,52.6,29.94,ENE,72,0.0,0.0,71,0.00,CLR,,0.00,WeatherDisplay:10.37,2013-10-27 17:03:00,
2013-10-28 04:08:00,61.9,52.4,29.95,NE,52,0.0,0.0,71,0.00,CLR,,0.00,WeatherDisplay:10.37,2013-10-27 17:08:00,
2013-10-28 04:13:00,61.9,52.8,29.95,NE,45,0.0,0.0,72,0.00,CLR,,0.00,WeatherDisplay:10.37,2013-10-27 17:13:00,
2013-10-28 04:18:00,61.9,52.8,29.94,ENE,58,0.0,0.0,72,0.00,CLR,,0.00,WeatherDisplay:10.37,2013-10-27 17:18:00,
2013-10-28 04:23:00,61.7,52.6,29.94,East,82,0.0,0.0,72,0.00,CLR,,0.00,WeatherDisplay:10.37,2013-10-27 17:23:00,
2013-10-28 04:28:00,61.7,52.6,29.94,East,90,0.0,0.0,72,0.00,CLR,,0.00,WeatherDisplay:10.37,2013-10-27 17:28:00,
2013-10-28 04:33:00,61.5,52.4,29.94,East,90,0.0,0.0,72,0.00,CLR,,0.00,WeatherDisplay:10.37,2013-10-27 17:33:00,
2013-10-28 04:38:00,61.5,52.4,29.94,East,90,0.0,0.0,72,0.00,CLR,,0.00,WeatherDisplay:10.37,2013-10-27 17:38:00,
2013-10-28 04:43:00,61.3,52.2,29.94,East,90,0.0,0.0,72,0.00,CLR,,0.00,WeatherDisplay:10.37,2013-10-27 17:43:00,
2013-10-28 04:48:00,61.3,52.6,29.94,East,90,0.0,0.0,73,0.00,CLR,,0.00,WeatherDisplay:10.37,2013-10-27 17:48:00,
2013-10-28 04:53:00,61.3,52.6,29.94,East,90,0.0,0.0,73,0.00,CLR,,0.00,WeatherDisplay:10.37,2013-10-27 17:53:00,
2013-10-28 04:58:00,61.3,52.6,29.93,East,90,0.0,0.0,73,0.00,CLR,,0.00,WeatherDisplay:10.37,2013-10-27 17:58:00,
2013-10-28 05:03:00,61.2,52.4,29.93,East,90,0.0,0.0,73,0.00,CLR,,0.00,WeatherDisplay:10.37,2013-10-27 18:03:00,
2013-10-28 05:08:00,61.3,52.6,29.93,East,90,0.0,0.0,73,0.00,CLR,,0.00,WeatherDisplay:10.37,2013-10-27 18:08:00,
2013-10-28 05:13:00,61.2,52.4,29.93,ESE,110,0.0,0.0,73,0.00,CLR,,0.00,WeatherDisplay:10.37,2013-10-27 18:13:00,
2013-10-28 05:18:00,61.3,53.0,29.93,SE,146,0.0,0.0,74,0.00,CLR,,0.00,WeatherDisplay:10.37,2013-10-27 18:18:00,
2013-10-28 05:23:00,61.3,53.0,29.93,SSE,158,0.0,0.0,74,0.00,CLR,,0.00,WeatherDisplay:10.37,2013-10-27 18:23:00,
2013-10-28 05:28:00,61.3,53.0,29.93,SSE,152,0.0,0.0,74,0.00,CLR,,0.00,WeatherDisplay:10.37,2013-10-27 18:28:00,
2013-10-28 05:33:00,61.3,53.0,29.93,SE,143,0.0,0.0,74,0.00,CLR,,0.00,WeatherDisplay:10.37,2013-10-27 18:33:00,
2013-10-28 05:38:00,61.3,53.0,29.93,South,172,0.0,0.0,74,0.00,CLR,,0.00,WeatherDisplay:10.37,2013-10-27 18:38:00,
2013-10-28 05:43:00,61.4,53.0,29.93,South,186,0.0,0.0,74,0.00,CLR,,0.00,WeatherDisplay:10.37,2013-10-27 18:43:00,
2013-10-28 05:48:00,61.5,53.2,29.94,ESE,102,0.0,0.0,74,0.00,CLR,,0.00,WeatherDisplay:10.37,2013-10-27 18:48:00,
2013-10-28 05:53:00,61.5,53.1,29.94,SE,126,0.0,0.0,74,0.00,CLR,,0.00,WeatherDisplay:10.37,2013-10-27 18:53:00,
2013-10-28 05:58:00,61.5,53.2,29.94,South,189,0.0,0.0,74,0.00,CLR,,0.00,WeatherDisplay:10.37,2013-10-27 18:58:00,
2013-10-28 06:03:00,61.5,53.2,29.94,South,180,0.0,0.0,74,0.00,CLR,,0.00,WeatherDisplay:10.37,2013-10-27 19:03:00,
2013-10-28 06:08:00,61.5,53.2,29.94,SSE,167,0.0,0.0,74,0.00,CLR,,0.00,WeatherDisplay:10.37,2013-10-27 19:08:00,
2013-10-28 06:13:00,61.6,53.6,29.95,SE,144,0.0,0.0,75,0.00,CLR,,0.00,WeatherDisplay:10.37,2013-10-27 19:13:00,
2013-10-28 06:18:00,61.7,53.7,29.95,SE,135,0.0,0.0,75,0.00,CLR,,0.00,WeatherDisplay:10.37,2013-10-27 19:18:00,
2013-10-28 06:23:00,61.7,53.7,29.95,SE,135,0.0,0.0,75,0.00,CLR,,0.00,WeatherDisplay:10.37,2013-10-27 19:23:00,
2013-10-28 06:28:00,61.8,53.8,29.95,SE,135,0.0,0.0,75,0.00,CLR,,0.00,WeatherDisplay:10.37,2013-10-27 19:28:00,
2013-10-28 06:33:00,61.8,53.8,29.95,SE,126,0.0,0.0,75,0.00,CLR,,0.00,WeatherDisplay:10.37,2013-10-27 19:33:00,
2013-10-28 06:38:00,61.9,53.9,29.96,East,89,0.0,0.0,75,0.00,CLR,,0.00,WeatherDisplay:10.37,2013-10-27 19:38:00,
2013-10-28 06:43:00,61.9,53.9,29.96,NE,56,0.0,0.0,75,0.00,CLR,,0.00,WeatherDisplay:10.37,2013-10-27 19:43:00,
2013-10-28 06:48:00,61.9,53.9,29.95,NE,45,0.0,0.0,75,0.00,CLR,,0.00,WeatherDisplay:10.37,2013-10-27 19:48:00,
2013-10-28 06:53:00,61.9,53.9,29.95,NE,45,0.0,0.0,75,0.00,CLR,,0.00,WeatherDisplay:10.37,2013-10-27 19:53:00,
2013-10-28 06:58:00,61.9,53.9,29.95,NE,45,0.0,0.0,75,0.00,CLR,,0.00,WeatherDisplay:10.37,2013-10-27 19:58:00,
2013-10-28 07:03:00,61.9,53.9,29.96,NE,45,0.0,0.0,75,0.00,CLR,,0.00,WeatherDisplay:10.37,2013-10-27 20:03:00,
2013-10-28 07:08:00,61.9,53.9,29.95,NE,45,0.0,0.0,75,0.00,CLR,,0.00,WeatherDisplay:10.37,2013-10-27 20:08:00,
2013-10-28 07:13:00,62.1,54.0,29.95,NE,45,0.0,0.0,75,0.00,CLR,,0.00,WeatherDisplay:10.37,2013-10-27 20:13:00,
2013-10-28 07:18:00,62.2,54.2,29.95,NE,45,0.0,0.0,75,0.00,CLR,,0.00,WeatherDisplay:10.37,2013-10-27 20:18:00,
2013-10-28 07:23:00,62.2,54.2,29.95,NE,45,0.0,0.0,75,0.00,CLR,,0.00,WeatherDisplay:10.37,2013-10-27 20:23:00,
2013-10-28 07:28:00,62.4,54.3,29.95,NE,45,0.0,0.0,75,0.00,CLR,,0.00,WeatherDisplay:10.37,2013-10-27 20:28:00,
2013-10-28 07:33:00,62.4,54.4,29.95,NE,45,0.0,0.0,75,0.00,CLR,,0.00,WeatherDisplay:10.37,2013-10-27 20:33:00,
2013-10-28 07:38:00,62.5,54.5,29.96,NE,45,0.0,0.0,75,0.00,CLR,,0.00,WeatherDisplay:10.37,2013-10-27 20:38:00,
2013-10-28 07:43:00,62.7,54.7,29.95,NE,50,0.0,0.0,75,0.00,CLR,,0.00,WeatherDisplay:10.37,2013-10-27 20:43:00,
2013-10-28 07:48:00,63.0,54.9,29.95,NE,50,0.0,0.0,75,0.00,CLR,,0.00,WeatherDisplay:10.37,2013-10-27 20:48:00,
2013-10-28 07:53:00,63.1,55.4,29.95,NE,45,0.0,0.0,76,0.00,CLR,,0.00,WeatherDisplay:10.37,2013-10-27 20:53:00,
2013-10-28 07:58:00,63.3,55.6,29.96,NE,45,0.0,0.0,76,0.00,CLR,,0.00,WeatherDisplay:10.37,2013-10-27 20:58:00,
2013-10-28 08:03:00,63.6,55.9,29.95,NE,45,0.0,0.0,76,0.00,CLR,,0.00,WeatherDisplay:10.37,2013-10-27 21:03:00,
2013-10-28 08:08:00,64.0,56.3,29.95,ENE,65,0.0,0.0,76,0.00,CLR,,0.00,WeatherDisplay:10.37,2013-10-27 21:08:00,
2013-10-28 08:13:00,64.2,56.5,29.95,ESE,109,0.0,0.0,76,0.00,CLR,,0.00,WeatherDisplay:10.37,2013-10-27 21:13:00,
2013-10-28 08:18:00,64.4,56.6,29.95,ENE,70,0.0,0.0,76,0.00,CLR,,0.00,WeatherDisplay:10.37,2013-10-27 21:18:00,
2013-10-28 08:23:00,64.6,56.8,29.95,NNE,33,0.0,2.0,76,0.00,CLR,,0.00,WeatherDisplay:10.37,2013-10-27 21:23:00,
2013-10-28 08:28:00,64.8,56.6,29.95,NNE,32,1.0,3.0,75,0.00,CLR,,0.00,WeatherDisplay:10.37,2013-10-27 21:28:00,
2013-10-28 08:33:00,64.9,56.8,29.95,NNE,32,0.0,2.0,75,0.00,CLR,,0.00,WeatherDisplay:10.37,2013-10-27 21:33:00,
2013-10-28 08:38:00,65.0,56.9,29.95,NNE,33,1.0,2.0,75,0.00,CLR,,0.00,WeatherDisplay:10.37,2013-10-27 21:38:00,
2013-10-28 08:43:00,65.2,57.1,29.95,NNE,29,1.0,4.0,75,0.00,CLR,,0.00,WeatherDisplay:10.37,2013-10-27 21:43:00,
2013-10-28 08:48:00,65.5,57.0,29.95,NE,38,0.0,4.0,74,0.00,CLR,,0.00,WeatherDisplay:10.37,2013-10-27 21:48:00,
2013-10-28 08:53:00,65.8,57.3,29.95,NNE,25,2.0,6.0,74,0.00,CLR,,0.00,WeatherDisplay:10.37,2013-10-27 21:53:00,
2013-10-28 08:58:00,66.0,57.5,29.95,NNE,23,3.0,7.0,74,0.00,CLR,,0.00,WeatherDisplay:10.37,2013-10-27 21:58:00,
2013-10-28 09:03:00,66.4,57.5,29.95,NNE,25,1.0,5.0,73,0.00,CLR,,0.00,WeatherDisplay:10.37,2013-10-27 22:03:00,
2013-10-28 09:13:00,66.5,57.2,29.96,North,357,1.0,2.0,72,0.00,CLR,,0.00,WeatherDisplay:10.37,2013-10-27 22:13:00,
2013-10-28 09:18:00,66.9,57.6,29.95,NNE,20,1.0,3.0,72,0.00,CLR,,0.00,WeatherDisplay:10.37,2013-10-27 22:18:00,
2013-10-28 09:23:00,67.2,57.9,29.95,NE,34,0.0,0.0,72,0.00,CLR,,0.00,WeatherDisplay:10.37,2013-10-27 22:23:00,
2013-10-28 09:28:00,67.6,57.9,29.94,North,4,0.0,2.0,71,0.00,CLR,,0.00,WeatherDisplay:10.37,2013-10-27 22:28:00,
2013-10-28 09:33:00,68.2,58.0,29.94,North,4,1.0,3.0,70,0.00,CLR,,0.00,WeatherDisplay:10.37,2013-10-27 22:33:00,
2013-10-28 09:38:00,68.7,58.6,29.94,NNE,33,0.0,3.0,70,0.00,CLR,,0.00,WeatherDisplay:10.37,2013-10-27 22:38:00,
2013-10-28 09:43:00,69.5,58.9,29.94,NNE,21,1.0,4.0,69,0.00,CLR,,0.00,WeatherDisplay:10.37,2013-10-27 22:43:00,
2013-10-28 09:48:00,70.3,58.8,29.93,NNE,14,0.0,2.0,67,0.00,CLR,,0.00,WeatherDisplay:10.37,2013-10-27 22:48:00,
2013-10-28 09:53:00,70.9,59.0,29.93,North,7,1.0,6.0,66,0.00,CLR,,0.00,WeatherDisplay:10.37,2013-10-27 22:53:00,
2013-10-28 09:58:00,71.4,58.6,29.93,North,5,1.0,3.0,64,0.00,CLR,,0.00,WeatherDisplay:10.37,2013-10-27 22:58:00,
2013-10-28 10:03:00,72.1,58.8,29.93,North,356,2.0,10.0,63,0.00,CLR,,0.00,WeatherDisplay:10.37,2013-10-27 23:03:00,
2013-10-28 10:08:00,72.6,58.9,29.93,North,355,0.0,3.0,62,0.00,CLR,,0.00,WeatherDisplay:10.37,2013-10-27 23:08:00,
2013-10-28 10:13:00,73.0,59.2,29.92,NNE,21,0.0,5.0,62,0.00,CLR,,0.00,WeatherDisplay:10.37,2013-10-27 23:13:00,
2013-10-28 10:18:00,73.2,59.0,29.92,NNE,16,2.0,6.0,61,0.00,CLR,,0.00,WeatherDisplay:10.37,2013-10-27 23:18:00,
2013-10-28 10:23:00,73.4,58.7,29.92,North,11,1.0,8.0,60,0.00,CLR,,0.00,WeatherDisplay:10.37,2013-10-27 23:23:00,
2013-10-28 10:28:00,73.8,58.6,29.92,NNW,348,0.0,8.0,59,0.00,CLR,,0.00,WeatherDisplay:10.37,2013-10-27 23:28:00,
2013-10-28 10:33:00,74.8,59.5,29.92,WNW,285,0.0,3.0,59,0.00,CLR,,0.00,WeatherDisplay:10.37,2013-10-27 23:33:00,
2013-10-28 10:38:00,75.4,59.1,29.92,WNW,296,0.0,0.0,57,0.00,CLR,,0.00,WeatherDisplay:10.37,2013-10-27 23:38:00,
2013-10-28 10:43:00,75.7,58.9,29.91,NW,325,0.0,2.0,56,0.00,CLR,,0.00,WeatherDisplay:10.37,2013-10-27 23:43:00,
2013-10-28 10:48:00,76.3,59.4,29.91,NNW,340,2.0,6.0,56,0.00,CLR,,0.00,WeatherDisplay:10.37,2013-10-27 23:48:00,
2013-10-28 10:53:00,76.7,59.3,29.90,North,351,1.0,6.0,55,0.00,CLR,,0.00,WeatherDisplay:10.37,2013-10-27 23:53:00,
2013-10-28 10:58:00,76.8,59.4,29.90,North,7,2.0,5.0,55,0.00,CLR,,0.00,WeatherDisplay:10.37,2013-10-27 23:58:00,
2013-10-28 11:03:00,77.4,59.9,29.89,NNW,348,1.0,4.0,55,0.00,CLR,,0.00,WeatherDisplay:10.37,2013-10-28 00:03:00,
2013-10-28 11:08:00,77.7,59.8,29.89,NNW,338,2.0,6.0,54,0.00,CLR,,0.00,WeatherDisplay:10.37,2013-10-28 00:08:00,
2013-10-28 11:13:00,78.1,60.1,29.90,NNW,337,0.0,6.0,54,0.00,CLR,,0.00,WeatherDisplay:10.37,2013-10-28 00:13:00,
2013-10-28 11:18:00,78.1,59.6,29.89,NNW,329,0.0,3.0,53,0.00,CLR,,0.00,WeatherDisplay:10.37,2013-10-28 00:18:00,
2013-10-28 11:23:00,78.6,60.1,29.88,NNW,345,1.0,5.0,53,0.00,CLR,,0.00,WeatherDisplay:10.37,2013-10-28 00:23:00,
2013-10-28 11:28:00,78.8,60.2,29.89,NNE,14,2.0,8.0,53,0.00,CLR,,0.00,WeatherDisplay:10.37,2013-10-28 00:28:00,
2013-10-28 11:33:00,78.6,59.5,29.88,NNE,32,0.0,8.0,52,0.00,CLR,,0.00,WeatherDisplay:10.37,2013-10-28 00:33:00,
2013-10-28 11:38:00,79.0,59.9,29.88,NE,44,1.0,5.0,52,0.00,CLR,,0.00,WeatherDisplay:10.37,2013-10-28 00:38:00,
2013-10-28 11:43:00,79.2,60.0,29.88,NNE,30,2.0,5.0,52,0.00,CLR,,0.00,WeatherDisplay:10.37,2013-10-28 00:43:00,
2013-10-28 11:48:00,79.4,60.3,29.88,North,6,0.0,5.0,52,0.00,CLR,,0.00,WeatherDisplay:10.37,2013-10-28 00:48:00,
2013-10-28 11:53:00,80.0,60.2,29.87,NW,317,0.0,5.0,51,0.00,CLR,,0.00,WeatherDisplay:10.37,2013-10-28 00:53:00,
2013-10-28 11:58:00,80.1,60.3,29.86,NNW,344,3.0,5.0,51,0.00,CLR,,0.00,WeatherDisplay:10.37,2013-10-28 00:58:00,
2013-10-28 12:03:00,80.2,60.5,29.86,NNE,22,2.0,5.0,51,0.00,CLR,,0.00,WeatherDisplay:10.37,2013-10-28 01:03:00,
2013-10-28 12:08:00,80.4,60.1,29.85,North,352,1.0,5.0,50,0.00,CLR,,0.00,WeatherDisplay:10.37,2013-10-28 01:08:00,
2013-10-28 12:13:00,81.1,60.7,29.85,NW,326,0.0,5.0,50,0.00,CLR,,0.00,WeatherDisplay:10.37,2013-10-28 01:13:00,
2013-10-28 12:18:00,81.7,60.1,29.85,NW,324,1.0,5.0,48,0.00,CLR,,0.00,WeatherDisplay:10.37,2013-10-28 01:18:00,
2013-10-28 12:23:00,82.4,60.1,29.85,NNW,333,0.0,5.0,47,0.00,CLR,,0.00,WeatherDisplay:10.37,2013-10-28 01:23:00,
2013-10-28 12:28:00,82.9,60.0,29.84,NNW,331,1.0,5.0,46,0.00,CLR,,0.00,WeatherDisplay:10.37,2013-10-28 01:28:00,
2013-10-28 12:33:00,82.9,59.4,29.84,NNW,341,1.0,6.0,45,0.00,CLR,,0.00,WeatherDisplay:10.37,2013-10-28 01:33:00,
2013-10-28 12:38:00,82.5,59.0,29.84,North,352,0.0,2.0,45,0.00,CLR,,0.00,WeatherDisplay:10.37,2013-10-28 01:38:00,
2013-10-28 12:43:00,82.0,59.2,29.84,NNW,341,2.0,5.0,46,0.00,CLR,,0.00,WeatherDisplay:10.37,2013-10-28 01:43:00,
2013-10-28 12:48:00,82.0,59.8,29.84,WNW,286,2.0,5.0,47,0.00,CLR,,0.00,WeatherDisplay:10.37,2013-10-28 01:48:00,
2013-10-28 12:53:00,81.8,60.2,29.83,NW,307,3.0,6.0,48,0.00,CLR,,0.00,WeatherDisplay:10.37,2013-10-28 01:53:00,
2013-10-28 12:58:00,81.3,59.8,29.83,NW,321,0.0,6.0,48,0.00,CLR,,0.00,WeatherDisplay:10.37,2013-10-28 01:58:00,
2013-10-28 13:03:00,80.8,59.8,29.83,WNW,285,1.0,5.0,49,0.00,CLR,,0.00,WeatherDisplay:10.37,2013-10-28 02:03:00,
2013-10-28 13:08:00,80.2,59.3,29.83,SSW,212,1.0,5.0,49,0.00,CLR,,0.00,WeatherDisplay:10.37,2013-10-28 02:08:00,
2013-10-28 13:13:00,79.7,59.4,29.83,WNW,296,2.0,8.0,50,0.00,CLR,,0.00,WeatherDisplay:10.37,2013-10-28 02:13:00,
2013-10-28 13:18:00,79.5,59.2,29.83,NW,326,1.0,2.0,50,0.00,CLR,,0.00,WeatherDisplay:10.37,2013-10-28 02:18:00,
2013-10-28 13:23:00,79.2,59.5,29.83,NNW,330,0.0,2.0,51,0.00,CLR,,0.00,WeatherDisplay:10.37,2013-10-28 02:23:00,
2013-10-28 13:28:00,78.9,59.2,29.83,NNW,339,1.0,4.0,51,0.00,CLR,,0.00,WeatherDisplay:10.37,2013-10-28 02:28:00,
2013-10-28 13:33:00,79.0,59.3,29.83,NNW,332,0.0,2.0,51,0.00,CLR,,0.00,WeatherDisplay:10.37,2013-10-28 02:33:00,
2013-10-28 13:38:00,79.5,60.4,29.82,NNW,332,1.0,2.0,52,0.00,CLR,,0.00,WeatherDisplay:10.37,2013-10-28 02:38:00,
2013-10-28 13:43:00,80.2,60.4,29.82,NNE,19,2.0,6.0,51,0.00,CLR,,0.00,WeatherDisplay:10.37,2013-10-28 02:43:00,
2013-10-28 13:48:00,80.4,60.7,29.82,NE,41,1.0,6.0,51,0.00,CLR,,0.00,WeatherDisplay:10.37,2013-10-28 02:48:00,
2013-10-28 13:53:00,81.1,60.7,29.82,NNW,335,0.0,6.0,50,0.00,CLR,,0.00,WeatherDisplay:10.37,2013-10-28 02:53:00,
2013-10-28 13:58:00,81.3,60.9,29.81,NNW,328,1.0,7.0,50,0.00,CLR,,0.00,WeatherDisplay:10.37,2013-10-28 02:58:00,
2013-10-28 14:03:00,81.3,60.9,29.81,North,356,3.0,7.0,50,0.00,CLR,,0.00,WeatherDisplay:10.37,2013-10-28 03:03:00,
2013-10-28 14:08:00,81.5,60.5,29.80,North,4,1.0,7.0,49,0.00,CLR,,0.00,WeatherDisplay:10.37,2013-10-28 03:08:00,
2013-10-28 14:13:00,81.7,60.7,29.80,North,6,1.0,7.0,49,0.00,CLR,,0.00,WeatherDisplay:10.37,2013-10-28 03:13:00,
2013-10-28 14:18:00,82.0,61.0,29.80,North,357,1.0,5.0,49,0.00,CLR,,0.00,WeatherDisplay:10.37,2013-10-28 03:18:00,
2013-10-28 14:23:00,81.7,60.7,29.80,North,353,1.0,9.0,49,0.00,CLR,,0.00,WeatherDisplay:10.37,2013-10-28 03:23:00,
2013-10-28 14:28:00,81.7,60.7,29.80,NNW,331,1.0,9.0,49,0.00,CLR,,0.00,WeatherDisplay:10.37,2013-10-28 03:28:00,
2013-10-28 14:33:00,81.7,60.7,29.80,North,350,2.0,10.0,49,0.00,CLR,,0.00,WeatherDisplay:10.37,2013-10-28 03:33:00,
2013-10-28 14:38:00,81.7,60.7,29.80,NNE,12,2.0,3.0,49,0.00,CLR,,0.00,WeatherDisplay:10.37,2013-10-28 03:38:00,
2013-10-28 14:43:00,81.6,60.6,29.79,North,357,1.0,4.0,49,0.00,CLR,,0.00,WeatherDisplay:10.37,2013-10-28 03:43:00,
2013-10-28 14:48:00,81.7,60.7,29.79,NNE,20,2.0,4.0,49,0.00,CLR,,0.00,WeatherDisplay:10.37,2013-10-28 03:48:00,
2013-10-28 14:53:00,81.7,60.7,29.79,North,4,2.0,4.0,49,0.00,CLR,,0.00,WeatherDisplay:10.37,2013-10-28 03:53:00,
2013-10-28 14:58:00,81.5,60.5,29.78,North,11,1.0,5.0,49,0.00,CLR,,0.00,WeatherDisplay:10.37,2013-10-28 03:58:00,
2013-10-28 15:03:00,81.5,60.5,29.79,North,353,2.0,6.0,49,0.00,CLR,,0.00,WeatherDisplay:10.37,2013-10-28 04:03:00,
2013-10-28 15:08:00,81.5,60.5,29.78,WNW,297,2.0,6.0,49,0.00,CLR,,0.00,WeatherDisplay:10.37,2013-10-28 04:08:00,
2013-10-28 15:13:00,81.5,59.9,29.79,WNW,296,1.0,7.0,48,0.00,CLR,,0.00,WeatherDisplay:10.37,2013-10-28 04:13:00,
2013-10-28 15:18:00,81.1,59.6,29.78,NW,324,1.0,7.0,48,0.00,CLR,,0.00,WeatherDisplay:10.37,2013-10-28 04:18:00,
2013-10-28 15:23:00,80.8,59.9,29.77,North,4,1.0,8.0,49,0.00,CLR,,0.00,WeatherDisplay:10.37,2013-10-28 04:23:00,
2013-10-28 15:28:00,80.8,59.8,29.77,NE,44,2.0,8.0,49,0.00,CLR,,0.00,WeatherDisplay:10.37,2013-10-28 04:28:00,
2013-10-28 15:33:00,80.5,59.6,29.77,ENE,60,1.0,7.0,49,0.00,CLR,,0.00,WeatherDisplay:10.37,2013-10-28 04:33:00,
2013-10-28 15:38:00,80.4,59.5,29.77,ENE,67,2.0,5.0,49,0.00,CLR,,0.00,WeatherDisplay:10.37,2013-10-28 04:38:00,
2013-10-28 15:43:00,80.4,60.1,29.77,NE,34,3.0,9.0,50,0.00,CLR,,0.00,WeatherDisplay:10.37,2013-10-28 04:43:00,
2013-10-28 15:48:00,80.2,59.9,29.77,East,89,6.0,10.0,50,0.00,CLR,,0.00,WeatherDisplay:10.37,2013-10-28 04:48:00,
2013-10-28 15:53:00,80.0,59.7,29.77,ESE,111,3.0,12.0,50,0.00,CLR,,0.00,WeatherDisplay:10.37,2013-10-28 04:53:00,
2013-10-28 15:58:00,79.8,59.5,29.76,NE,42,2.0,5.0,50,0.00,CLR,,0.00,WeatherDisplay:10.37,2013-10-28 04:58:00,
2013-10-28 16:03:00,79.9,60.1,29.76,NNE,23,1.0,6.0,51,0.00,CLR,,0.00,WeatherDisplay:10.37,2013-10-28 05:03:00,
2013-10-28 16:08:00,79.8,59.5,29.76,South,177,0.0,2.0,50,0.00,CLR,,0.00,WeatherDisplay:10.37,2013-10-28 05:08:00,
2013-10-28 16:13:00,79.9,59.6,29.76,SSW,213,1.0,4.0,50,0.00,CLR,,0.00,WeatherDisplay:10.37,2013-10-28 05:13:00,
2013-10-28 16:18:00,79.7,59.4,29.77,SE,142,1.0,5.0,50,0.00,CLR,,0.00,WeatherDisplay:10.37,2013-10-28 05:18:00,
2013-10-28 16:23:00,79.7,59.4,29.77,East,98,1.0,5.0,50,0.00,CLR,,0.00,WeatherDisplay:10.37,2013-10-28 05:23:00,
2013-10-28 16:28:00,79.5,58.7,29.77,NE,35,1.0,7.0,49,0.00,CLR,,0.00,WeatherDisplay:10.37,2013-10-28 05:28:00,
2013-10-28 16:33:00,79.3,59.0,29.77,NE,38,2.0,6.0,50,0.00,CLR,,0.00,WeatherDisplay:10.37,2013-10-28 05:33:00,
2013-10-28 16:38:00,79.0,58.8,29.77,NE,37,1.0,5.0,50,0.00,CLR,,0.00,WeatherDisplay:10.37,2013-10-28 05:38:00,
2013-10-28 16:43:00,78.9,58.7,29.77,NW,315,1.0,6.0,50,0.00,CLR,,0.00,WeatherDisplay:10.37,2013-10-28 05:43:00,
2013-10-28 16:48:00,78.6,58.4,29.77,NNW,336,1.0,6.0,50,0.00,CLR,,0.00,WeatherDisplay:10.37,2013-10-28 05:48:00,
2013-10-28 16:53:00,78.4,58.2,29.77,NNE,30,2.0,8.0,50,0.00,CLR,,0.00,WeatherDisplay:10.37,2013-10-28 05:53:00,
2013-10-28 16:58:00,77.9,57.8,29.76,NNE,18,0.0,8.0,50,0.00,CLR,,0.00,WeatherDisplay:10.37,2013-10-28 05:58:00,
2013-10-28 17:03:00,77.6,58.0,29.76,North,354,0.0,8.0,51,0.00,CLR,,0.00,WeatherDisplay:10.37,2013-10-28 06:03:00,
2013-10-28 17:08:00,77.4,57.9,29.77,NNE,25,2.0,6.0,51,0.00,CLR,,0.00,WeatherDisplay:10.37,2013-10-28 06:08:00,
2013-10-28 17:13:00,77.3,58.3,29.76,SW,230,0.0,5.0,52,0.00,CLR,,0.00,WeatherDisplay:10.37,2013-10-28 06:13:00,
2013-10-28 17:18:00,77.2,58.2,29.76,SSW,201,1.0,5.0,52,0.00,CLR,,0.00,WeatherDisplay:10.37,2013-10-28 06:18:00,
2013-10-28 17:23:00,77.2,58.7,29.76,ESE,107,3.0,8.0,53,0.00,CLR,,0.00,WeatherDisplay:10.37,2013-10-28 06:23:00,
2013-10-28 17:28:00,76.8,58.4,29.76,ENE,74,1.0,8.0,53,0.00,CLR,,0.00,WeatherDisplay:10.37,2013-10-28 06:28:00,
2013-10-28 17:33:00,76.8,58.9,29.76,NE,35,1.0,6.0,54,0.00,CLR,,0.00,WeatherDisplay:10.37,2013-10-28 06:33:00,
2013-10-28 17:38:00,76.6,58.7,29.76,NNE,28,3.0,6.0,54,0.00,CLR,,0.00,WeatherDisplay:10.37,2013-10-28 06:38:00,
2013-10-28 17:43:00,76.3,58.4,29.76,NNE,25,2.0,6.0,54,0.00,CLR,,0.00,WeatherDisplay:10.37,2013-10-28 06:43:00,
2013-10-28 17:48:00,76.1,58.8,29.76,North,354,0.0,2.0,55,0.00,CLR,,0.00,WeatherDisplay:10.37,2013-10-28 06:48:00,
2013-10-28 17:53:00,76.2,58.9,29.76,NNW,334,1.0,5.0,55,0.00,CLR,,0.00,WeatherDisplay:10.37,2013-10-28 06:53:00,
2013-10-28 17:58:00,76.1,58.8,29.75,North,349,0.0,4.0,55,0.00,CLR,,0.00,WeatherDisplay:10.37,2013-10-28 06:58:00,
2013-10-28 18:03:00,75.9,58.6,29.76,NNW,343,0.0,2.0,55,0.00,CLR,,0.00,WeatherDisplay:10.37,2013-10-28 07:03:00,
2013-10-28 18:08:00,75.9,58.6,29.76,NNW,343,0.0,4.0,55,0.00,CLR,,0.00,WeatherDisplay:10.37,2013-10-28 07:08:00,
2013-10-28 18:13:00,75.7,58.9,29.76,NNE,12,1.0,4.0,56,0.00,CLR,,0.00,WeatherDisplay:10.37,2013-10-28 07:13:00,
2013-10-28 18:18:00,75.6,58.8,29.75,North,4,1.0,4.0,56,0.00,CLR,,0.00,WeatherDisplay:10.37,2013-10-28 07:18:00,
2013-10-28 18:23:00,75.4,58.6,29.75,NNE,31,0.0,2.0,56,0.00,CLR,,0.00,WeatherDisplay:10.37,2013-10-28 07:23:00,
2013-10-28 18:28:00,75.4,58.6,29.76,North,354,0.0,2.0,56,0.00,CLR,,0.00,WeatherDisplay:10.37,2013-10-28 07:28:00,
2013-10-28 18:33:00,75.3,58.5,29.76,NNW,348,1.0,2.0,56,0.00,CLR,,0.00,WeatherDisplay:10.37,2013-10-28 07:33:00,
2013-10-28 18:38:00,75.1,58.4,29.76,NNE,32,0.0,3.0,56,0.00,CLR,,0.00,WeatherDisplay:10.37,2013-10-28 07:38:00,
2013-10-28 18:43:00,75.0,58.3,29.76,East,98,0.0,0.0,56,0.00,CLR,,0.00,WeatherDisplay:10.37,2013-10-28 07:43:00,
2013-10-28 18:48:00,74.9,58.2,29.76,East,94,0.0,0.0,56,0.00,CLR,,0.00,WeatherDisplay:10.37,2013-10-28 07:48:00,
2013-10-28 18:53:00,74.7,57.9,29.76,ESE,120,0.0,2.0,56,0.00,CLR,,0.00,WeatherDisplay:10.37,2013-10-28 07:53:00,
2013-10-28 18:58:00,74.5,57.8,29.76,ENE,59,0.0,2.0,56,0.00,CLR,,0.00,WeatherDisplay:10.37,2013-10-28 07:58:00,
2013-10-28 19:03:00,74.3,57.6,29.76,NNW,331,0.0,0.0,56,0.00,CLR,,0.00,WeatherDisplay:10.37,2013-10-28 08:03:00,
2013-10-28 19:08:00,74.1,57.9,29.76,WSW,239,0.0,0.0,57,0.00,CLR,,0.00,WeatherDisplay:10.37,2013-10-28 08:08:00,
2013-10-28 19:13:00,74.1,57.9,29.76,SSW,196,0.0,3.0,57,0.00,CLR,,0.00,WeatherDisplay:10.37,2013-10-28 08:13:00,
2013-10-28 19:18:00,73.9,57.7,29.76,SW,235,0.0,0.0,57,0.00,CLR,,0.00,WeatherDisplay:10.37,2013-10-28 08:18:00,
2013-10-28 19:23:00,73.6,57.4,29.76,NE,37,0.0,0.0,57,0.00,CLR,,0.00,WeatherDisplay:10.37,2013-10-28 08:23:00,
2013-10-28 19:28:00,73.6,57.9,29.76,SE,133,0.0,0.0,58,0.00,CLR,,0.00,WeatherDisplay:10.37,2013-10-28 08:28:00,
2013-10-28 19:33:00,73.2,57.6,29.76,South,190,0.0,0.0,58,0.00,CLR,,0.00,WeatherDisplay:10.37,2013-10-28 08:33:00,
2013-10-28 19:38:00,73.2,57.6,29.76,WSW,257,0.0,0.0,58,0.00,CLR,,0.00,WeatherDisplay:10.37,2013-10-28 08:38:00,
2013-10-28 19:43:00,73.0,57.4,29.76,NNW,330,0.0,0.0,58,0.00,CLR,,0.00,WeatherDisplay:10.37,2013-10-28 08:43:00,
2013-10-28 19:48:00,72.9,57.2,29.76,NW,320,0.0,1.0,58,0.00,CLR,,0.00,WeatherDisplay:10.37,2013-10-28 08:48:00,
2013-10-28 19:53:00,72.7,57.0,29.76,WNW,296,1.0,2.0,58,0.00,CLR,,0.00,WeatherDisplay:10.37,2013-10-28 08:53:00,
2013-10-28 19:58:00,72.7,57.0,29.76,NW,321,0.0,0.0,58,0.00,CLR,,0.00,WeatherDisplay:10.37,2013-10-28 08:58:00,
2013-10-28 20:03:00,72.7,57.0,29.76,NW,322,0.0,0.0,58,0.00,CLR,,0.00,WeatherDisplay:10.37,2013-10-28 09:03:00,
2013-10-28 20:08:00,72.3,56.7,29.76,WSW,249,0.0,0.0,58,0.00,CLR,,0.00,WeatherDisplay:10.37,2013-10-28 09:08:00,
2013-10-28 20:13:00,72.3,56.7,29.76,SW,232,0.0,0.0,58,0.00,CLR,,0.00,WeatherDisplay:10.37,2013-10-28 09:13:00,
2013-10-28 20:18:00,72.2,56.6,29.76,SW,234,0.0,2.0,58,0.00,CLR,,0.00,WeatherDisplay:10.37,2013-10-28 09:18:00,
2013-10-28 20:23:00,72.1,57.0,29.76,WNW,291,0.0,0.0,59,0.00,CLR,,0.00,WeatherDisplay:10.37,2013-10-28 09:23:00,
2013-10-28 20:28:00,72.1,57.0,29.76,NW,310,0.0,0.0,59,0.00,CLR,,0.00,WeatherDisplay:10.37,2013-10-28 09:28:00,
2013-10-28 20:33:00,72.1,57.0,29.76,NNW,327,0.0,0.0,59,0.00,CLR,,0.00,WeatherDisplay:10.37,2013-10-28 09:33:00,
2013-10-28 20:38:00,72.1,57.0,29.76,NNW,343,0.0,0.0,59,0.00,CLR,,0.00,WeatherDisplay:10.37,2013-10-28 09:38:00,
2013-10-28 20:43:00,72.0,56.8,29.76,NW,318,0.0,0.0,59,0.00,CLR,,0.00,WeatherDisplay:10.37,2013-10-28 09:43:00,
2013-10-28 20:48:00,71.9,57.2,29.76,WNW,292,0.0,0.0,60,0.00,CLR,,0.00,WeatherDisplay:10.37,2013-10-28 09:48:00,
2013-10-28 20:53:00,71.8,57.1,29.76,WSW,249,0.0,0.0,60,0.00,CLR,,0.00,WeatherDisplay:10.37,2013-10-28 09:53:00,
2013-10-28 20:58:00,71.8,57.1,29.76,WSW,254,0.0,0.0,60,0.00,CLR,,0.00,WeatherDisplay:10.37,2013-10-28 09:58:00,
2013-10-28 21:03:00,71.8,57.1,29.75,WNW,288,0.0,0.0,60,0.00,CLR,,0.00,WeatherDisplay:10.37,2013-10-28 10:03:00,
2013-10-28 21:08:00,71.6,57.4,29.75,West,266,0.0,0.0,61,0.00,CLR,,0.00,WeatherDisplay:10.37,2013-10-28 10:08:00,
2013-10-28 21:13:00,71.4,57.3,29.75,West,279,0.0,0.0,61,0.00,CLR,,0.00,WeatherDisplay:10.37,2013-10-28 10:13:00,
2013-10-28 21:18:00,71.4,57.3,29.75,West,270,0.0,0.0,61,0.00,CLR,,0.00,WeatherDisplay:10.37,2013-10-28 10:18:00,
2013-10-28 21:23:00,71.4,57.3,29.75,WSW,243,0.0,0.0,61,0.00,CLR,,0.00,WeatherDisplay:10.37,2013-10-28 10:23:00,
2013-10-28 21:28:00,71.2,57.1,29.75,SW,234,0.0,0.0,61,0.00,CLR,,0.00,WeatherDisplay:10.37,2013-10-28 10:28:00,
2013-10-28 21:33:00,71.2,57.1,29.75,SW,225,0.0,0.0,61,0.00,CLR,,0.00,WeatherDisplay:10.37,2013-10-28 10:33:00,
2013-10-28 21:38:00,70.9,56.8,29.74,SSW,212,0.0,0.0,61,0.00,CLR,,0.00,WeatherDisplay:10.37,2013-10-28 10:38:00,
2013-10-28 21:43:00,70.9,57.2,29.74,SSW,205,0.0,0.0,62,0.00,CLR,,0.00,WeatherDisplay:10.37,2013-10-28 10:43:00,
2013-10-28 21:48:00,70.9,57.2,29.74,SW,220,0.0,0.0,62,0.00,CLR,,0.00,WeatherDisplay:10.37,2013-10-28 10:48:00,
2013-10-28 21:53:00,70.7,57.0,29.74,WSW,254,0.0,0.0,62,0.00,CLR,,0.00,WeatherDisplay:10.37,2013-10-28 10:53:00,
2013-10-28 21:58:00,70.6,57.0,29.74,WNW,292,0.0,0.0,62,0.00,CLR,,0.00,WeatherDisplay:10.37,2013-10-28 10:58:00,
2013-10-28 22:03:00,70.5,56.4,29.74,NW,313,0.0,0.0,61,0.00,CLR,,0.00,WeatherDisplay:10.37,2013-10-28 11:03:00,
2013-10-28 22:08:00,70.5,56.4,29.73,NNW,330,0.0,0.0,61,0.00,CLR,,0.00,WeatherDisplay:10.37,2013-10-28 11:08:00,
2013-10-28 22:13:00,70.5,56.4,29.73,NNW,343,0.0,0.0,61,0.00,CLR,,0.00,WeatherDisplay:10.37,2013-10-28 11:13:00,
2013-10-28 22:18:00,70.5,56.4,29.73,WNW,284,0.0,0.0,61,0.00,CLR,,0.00,WeatherDisplay:10.37,2013-10-28 11:18:00,
2013-10-28 22:23:00,70.5,56.4,29.72,NW,317,0.0,3.0,61,0.00,CLR,,0.00,WeatherDisplay:10.37,2013-10-28 11:23:00,
2013-10-28 22:28:00,70.5,56.4,29.73,North,5,0.0,0.0,61,0.00,CLR,,0.00,WeatherDisplay:10.37,2013-10-28 11:28:00,
2013-10-28 22:33:00,70.5,56.4,29.72,North,351,0.0,0.0,61,0.00,CLR,,0.00,WeatherDisplay:10.37,2013-10-28 11:33:00,
2013-10-28 22:38:00,70.3,56.2,29.72,NW,322,0.0,0.0,61,0.00,CLR,,0.00,WeatherDisplay:10.37,2013-10-28 11:38:00,
2013-10-28 22:43:00,70.3,56.2,29.72,NW,305,0.0,0.0,61,0.00,CLR,,0.00,WeatherDisplay:10.37,2013-10-28 11:43:00,
2013-10-28 22:48:00,70.3,56.2,29.72,NW,317,0.0,0.0,61,0.00,CLR,,0.00,WeatherDisplay:10.37,2013-10-28 11:48:00,
2013-10-28 22:53:00,70.2,56.1,29.71,NNW,327,0.0,0.0,61,0.00,CLR,,0.00,WeatherDisplay:10.37,2013-10-28 11:53:00,
2013-10-28 22:58:00,70.0,55.9,29.71,NW,318,0.0,0.0,61,0.00,CLR,,0.00,WeatherDisplay:10.37,2013-10-28 11:58:00,
2013-10-28 23:03:00,70.0,55.9,29.71,WNW,293,0.0,0.0,61,0.00,CLR,,0.00,WeatherDisplay:10.37,2013-10-28 12:03:00,
2013-10-28 23:08:00,69.9,55.9,29.71,NW,322,0.0,0.0,61,0.00,CLR,,0.00,WeatherDisplay:10.37,2013-10-28 12:08:00,
2013-10-28 23:13:00,69.8,55.7,29.71,NNW,348,0.0,0.0,61,0.00,CLR,,0.00,WeatherDisplay:10.37,2013-10-28 12:13:00,
2013-10-28 23:18:00,69.6,55.6,29.70,North,352,0.0,0.0,61,0.00,CLR,,0.00,WeatherDisplay:10.37,2013-10-28 12:18:00,
2013-10-28 23:23:00,69.6,55.6,29.70,NNW,334,0.0,0.0,61,0.00,CLR,,0.00,WeatherDisplay:10.37,2013-10-28 12:23:00,
2013-10-28 23:28:00,69.6,55.6,29.70,West,277,0.0,0.0,61,0.00,CLR,,0.00,WeatherDisplay:10.37,2013-10-28 12:28:00,
2013-10-28 23:33:00,69.6,55.6,29.69,West,260,0.0,0.0,61,0.00,CLR,,0.00,WeatherDisplay:10.37,2013-10-28 12:33:00,
2013-10-28 23:38:00,69.4,55.4,29.69,WNW,286,0.0,0.0,61,0.00,CLR,,0.00,WeatherDisplay:10.37,2013-10-28 12:38:00,
2013-10-28 23:43:00,69.4,55.4,29.69,WNW,302,0.0,2.0,61,0.00,CLR,,0.00,WeatherDisplay:10.37,2013-10-28 12:43:00,
2013-10-28 23:48:00,69.3,55.2,29.69,WNW,288,0.0,0.0,61,0.00,CLR,,0.00,WeatherDisplay:10.37,2013-10-28 12:48:00,
2013-10-28 23:53:00,69.1,55.1,29.68,West,261,0.0,0.0,61,0.00,CLR,,0.00,WeatherDisplay:10.37,2013-10-28 12:53:00,
2013-10-28 23:58:00,68.9,54.9,29.68,West,262,0.0,0.0,61,0.00,CLR,,0.00,WeatherDisplay:10.37,2013-10-28 12:58:00,